Terminal Aerodrome Forecast
Issued by NWS

Home | Current Version | Previous Version | Text Only | Print | Product List | Glossary On
Versions: 1 2 3 4 5 6 7 8 9 10 11 12 13 14 15 16
137
FTUS42 KGSP 121526 AAB
TAFGMU
TAF AMD
KGMU 121526Z 1215/1312 03006KT P6SM SCT050 OVC070
      TEMPO 1215/1217 1SM -SN BKN018 OVC035
     FM121800 00000KT P6SM BKN050
     FM122100 24007KT P6SM SCT050
     FM122300 26008KT P6SM SCT250
     FM130500 30006KT P6SM FEW250=

USA.gov is the U.S. government's official web portal to all federal, state and local government web resources and services.